www.pogodaiklimat.ru

Погода и климат >> Архив погоды >> Иран >> Джаск


ПОГОДА в Джаске

  • Прогноз погоды в Джаске
  • Монитор погоды в Джаске

АРХИВ ПОГОДЫ в Джаске

Время (UTC), дата Ветер
(напр.,м/с)
 
Видим.   Явления Облачность Т
(С)
Тd
(С)
f
(%)
Тe
(С)
Тes
(С)
Комфортность P
(гПа)
Po
(гПа)
Тmin
(С)
Tmax
(С)
R
(мм)
R24
(мм)
S
(см)
12 12.01 ЮЗ 4 8000 м мгла 4/0
[Cs]
+23.7 +12.6 50 +26 +27 жарко 1015.2 1014.6
15 12.01 З 3 8000 м мгла 4/0
[Cs]
+22.6 +12.9 54 +25 +25 комфорт 1017.1 1016.5 +24.7
18 12.01 СЗ 2 6000 м мгла ясно +21.9 +10.3 48 +24 +24 комфорт 1017.4 1016.8
21 12.01 СВ 2 6000 м мгла ясно +20.3 +11.2 56 +23 +23 комфорт 1016.8 1016.2
00 13.01 СВ 2 6000 м мгла ясно +19.3 +9.9 54 +21 +21 комфорт 1017.2 1016.6
03 13.01 С 2 6000 м мгла ясно +18.1 +8.7 54 +19 +19 1018.5 1017.9 +17.8
06 13.01 В 2 7000 м мгла ясно +23.2 1020.5 1019.9
09 13.01 ЮВ 4 8000 м мгла ясно +24.3 +11.8 46 +26 +33 жарко 1018.6 1018.1
12 13.01 Ю 4 8000 м мгла ясно +24.3 1017.3 1016.7
15 13.01 Ю 4 6000 м мгла ясно +23.3 +15.9 63 +28 +28 душно 1018.5 1017.9 +24.5
18 13.01 ЮВ 4 6000 м мгла ясно +23.2 +16.3 65 +28 +28 душно 1019.2 1018.6
21 13.01 В 4 6000 м мгла ясно +22.5 +17.4 73 +27 +27 душно 1018.7 1018.1
00 14.01 СВ 2 6000 м мгла ясно +21.0 +15.6 71 +25 +25 комфорт 1018.8 1018.2
03 14.01 В 3 8000 м мгла ясно +21.1 +15.8 72 +24 +24 комфорт 1019.0 1018.4 +20.5
06 14.01 В 5 8000 м мгла 10/3 600 м
[Sc As trans]
+22.6 +16.5 68 +27 +28 душно 1021.7 1021.1
09 14.01 В 3 7000 м мгла 9/3 750 м
[Sc As trans]
+24.2 +16.9 64 +28 +31 душно 1020.1 1019.5
12 14.01 ЮВ 5 6000 м мгла 8/3 600 м
[Sc As trans Cs]
+24.1 +17.7 67 +28 +29 душно 1018.0 1017.4
15 14.01 ЮВ 4 6000 м мгла 4/0
[Cs]
+23.2 +17.7 71 +29 +29 душно 1019.2 1018.7 +24.6
18 14.01 ЮВ 3 6000 м мгла ясно +23.0 +18.0 73 +28 +28 душно 1019.7 1019.1
21 14.01 В 2 6000 м мгла ясно +22.5 +18.0 76 +28 +28 душно 1019.0 1018.4
00 15.01 СВ 2 6000 м мгла ясно +19.9 +16.2 79 +23 +23 комфорт 1018.7 1018.1
03 15.01 СВ 2 6000 м мгла ясно +19.9 +16.2 79 +23 +23 комфорт 1018.7 1018.1
06 15.01 В 2 6000 м мгла 6/0
[Cs]
+23.2 +18.0 73 +29 +35 душно 1020.9 1020.4
09 15.01 ЮЗ 2 6000 м мгла 3/0
[Cs]
+24.4 +18.7 71 +29 +39 душно 1018.5 1017.9
12 15.01 З 5 8000 м мгла ясно +25.2 1017.1 1016.5
15 15.01 З 5 6000 м мгла ясно +23.6 +18.4 73 +28 +28 душно 1017.2 1016.6 +25.3
18 15.01 СЗ 6 5000 м мгла ясно +23.2 +18.3 74 +29 +29 душно 1017.8 1017.2
21 15.01 СЗ 5 5000 м мгла ясно +22.5 +17.4 73 +27 +27 душно 1017.0 1016.4
00 16.01 СЗ 7 5000 м мгла ясно +22.6 +16.8 70 +27 +27 душно 1015.9 1015.3
03 16.01 СЗ 5 6000 м мгла ясно +22.4 +17.9 76 +27 +27 душно 1016.2 1015.7 +22.1
06 16.01 СЗ 5 7000 м мгла ясно +23.1 1018.0 1017.4
09 16.01 З 5 7000 м мгла ясно +25.0 +19.5 72 +30 +36 душно 1015.0 1014.4
12 16.01 З 6 6000 м мгла ясно +25.8 1012.7 1012.1
15 16.01 СЗ 5 6000 м мгла ясно +24.8 +17.9 65 +29 +29 душно 1013.0 1012.5 +25.9
18 16.01 СЗ 2 6000 м мгла ясно +23.1 +17.0 69 +28 +28 душно 1014.0 1013.4
21 16.01 СЗ 3 6000 м мгла ясно +22.8 +16.8 69 +28 +28 душно 1013.6 1013.0
00 17.01 С 2 6000 м мгла ясно +20.7 +15.3 71 +24 +24 комфорт 1013.5 1013.0
03 17.01 штиль 0 6000 м мгла 4/0
[Cs]
+19.3 +14.9 76 +21 +21 комфорт 1013.9 1013.3 +19.3
06 17.01 штиль 0 6000 м мгла 4/0
[Cs]
+25.1 +20.0 73 +31 +40 очень
душно
1015.6 1015.0
09 17.01 ЮВ 2 6000 м мгла 4/0
[Cs]
+24.8 +19.4 72 +30 +39 душно 1013.8 1013.2
12 17.01 ЮЗ 2 6000 м мгла 4/0
[Cs]
+25.0 +19.3 71 +30 +32 душно 1011.9 1011.3
15 17.01 Ю 2 6000 м мгла ясно +23.8 +20.1 80 +29 +29 душно 1013.0 1012.4 +25.6
18 17.01 ЮВ 2 6000 м дымка 3/3 750 м
[Cu hum]
+23.5 +20.4 83 +29 +29 душно 1014.9 1014.3
21 17.01 В 3 6000 м дымка 3/3 750 м
[Sc]
+23.4 +19.9 81 +30 +30 очень
душно
1014.4 1013.9
00 18.01 В 5 5000 м дымка 3/3 750 м
[Sc]
+22.6 +19.8 84 +29 +29 очень
душно
1013.7 1013.1
03 18.01 В 4 6000 м дымка 3/3 750 м
[Sc]
+22.4 +19.8 85 +28 +28 душно 1014.4 1013.8 +22.4
06 18.01 В 5 8000 м дымка 4/4 600 м
[Sc]
+23.2 +20.0 82 +30 +32 очень
душно
1016.5 1016.0
09 18.01 ЮВ 4 8000 м мгла 3/3 750 м
[Cb calv]
+24.8 +20.9 79 +31 +36 очень
душно
1014.6 1014.0
12 18.01 Ю 3 7000 м мгла 3/3 600 м
[Cb calv]
+24.8 +20.6 77 +31 +32 очень
душно
1013.3 1012.8
15 18.01 ЮЗ 2 7000 м мгла 3/3 900 м
[Sc]
+23.8 +19.6 77 +29 +29 душно 1013.9 1013.3 +25.2
18 18.01 З 2 6000 м мгла 5/0 2000 м
[As trans]
+23.3 +18.2 73 +29 +29 душно 1014.7 1014.1
21 18.01 СЗ 3 5000 м мгла 5/0 2000 м
[As trans]
+22.3 +14.4 61 +26 +26 жарко 1014.5 1013.9
00 19.01 СЗ 2 5000 м мгла 5/0 2000 м
[As trans]
+21.3 +13.3 60 +24 +24 комфорт 1014.0 1013.4
03 19.01 1 5000 м мгла 6/0 2000 м
[As trans]
+19.4 +14.0 71 +22 +22 комфорт 1014.9 1014.3 +19.3
06 19.01 З 2 6000 м мгла 9/0 2000 м
[As op]
+23.1 +15.1 61 +27 +29 душно 1016.6 1016.1
09 19.01 З 4 8000 м мгла 9/4 750 м
[Sc As trans]
+23.2 +13.9 56 +27 +29 душно 1014.8 1014.2

 

Местоположение метеостанции Джаск (Иран): широта 25.63 долгота 57.77 высота над уровнем моря 3 м.

В архиве по умолчанию представлена погода в Джаске за последнюю неделю. Архивные данные за месяц целиком и за предыдущие месяцы, начиная с января 2011 года, Вы можете получить, выбрав интересующий диапазон дат из раскрывающегося списка и нажав кнопку "Ввод!".


*Определитесь, кто Вы:
робот инопланетянин человек

Внимание! Время в таблицах - всемирное. Для получения местного времени необходимо прибавить поправку, которая равна 3.5 ч.

Смотрите также архив погоды в соседних городах и на ближайших метеорологических станциях:

Погода в Дибе (Оман) (152 км)
Погода в Фуджейре (ОАЭ) (156 км)
Погода в Эль-Хасаб аэропорту (Оман) (165 км)
Погода в Эль-Хасабе (Оман) (166 км)
Погода в Сухаре (Оман) (173 км)
Погода в Рай-эль-Хайма аэропорту (ОАЭ) (185 км)
Погода в Эс-Сувейке (Оман) (208 км)
Погода в Бендер-Аббасе (Иран) (225 км)
Погода в Шардже (ОАЭ) (228 км)
Погода в Сибе (Оман) (234 км)

Пояснения к столбцам:

Ветер - указаны скорость ветра в м/с - средняя за 10 мин, порывы в срок и между сроками (в фигурных скобках) и направление, откуда дует ветер: С - северный, СВ - северо-восточный, В - восточный, ЮВ - юго-восточный, Ю - южный, ЮЗ - юго-западный, З - западный, СЗ - северо-западный.
Видимость - горизонтальная дальность видимости в метрах или километрах. При видимости от 1 до 10 км при отсутствии осадков обычно наблюдается дымка, при ухудшении видимости до 1 км и менее - туман. В сухую погоду видимость может ухудшаться дымом, пылью или мглою.
Явления - указаны атмосферные явления, наблюдавшиеся в срок или в последний час перед сроком; фигурными скобками обозначены явления, наблюдавшиеся между сроками (за 1-3 часа до срока); квадратными скобками обозначены град или гололедные отложения с указанием их диаметра в мм.
Облачность - указаны через наклонную черту общая и нижняя облачность в баллах и высота нижней границы облаков в метрах; квадратными скобками обозначены формы облаков: Ci - перистые, Cs - перисто-слоистые, Cc - перисто-кучевые, Ac - высококучевые, As - высокослоистые, Sc - слоисто-кучевые, Ns - слоисто-дождевые, Cu - кучевые, Cb - кучево-дождевые. Подробнее классификацию облаков см. в Атласе облаков (PDF).
T - Температура воздуха - температура, измеренная на высоте 2 м над землей.
Td - Температура точки росы - температура, при понижении до которой содержащийся в воздухе водяной пар достигнет насыщения.
f - Относительная влажность воздуха - влажноcть воздуха, измеренная на высоте 2 м над землей.
Te - Эффективная температура - температура, которую ощущает одетый по сезону человек в тени. Характеристика душности погоды. При расчете учитывается влияние влажности воздуха и скорости ветра на теплоощущения человека.
Tes - Эффективная температура на солнце - температура, которую ощущает человек, с поправкой на солнечный нагрев. Характеристика знойности погоды. Зависит от высоты солнца над горизонтом, облачности и скорости ветра. Ночью, в пасмурную погоду, а также при ветре 12 м/с и более поправка равна нулю.
P - Атмосферное давление - приведенное к уровню моря атмосферное давление.
Po - Атмосферное давление - измеренное на уровне метеостанции атмосферное давление.
Tmin - Минимальная температура - минимум температуры воздуха на высоте 2 м над землей.
Tmax - Максимальная температура - максимум температуры воздуха на высоте 2 м над землей.
R - Количество осадков - Количество выпавших осадков за период времени, мм. При наведении курсора мыши на число - период времени, за который выпало указанное количество осадков.
R24 - Количество осадков - Количество выпавших осадков за 24 часа, мм.
S - Снежный покров - Высота снежного покрова, см. При наведении курсора мыши на число - состояние снежного покрова и степень покрытия местности в баллах.